{"data":{"norad_id":64791,"intl_designator":"2025-150B","name":"STARLINK-34697","alt_names":[],"object_type":"PAYLOAD","status":"ACTIVE","operator":null,"country":"US","launch_date":"2025-07-16","launch_site_code":"AFWTR","launch_vehicle":null,"mission":null,"orbit_class":"UNKNOWN","rcs_meters":null,"size_class":null,"mass_kg":null,"dimensions":null,"purposes":["comms"],"wikipedia_slug":null,"has_3d_model":false,"image_url":null,"decayed_at":null,"tle_current":{"epoch":"2026-09-20T14:13:34.762080Z","epoch_age_seconds":119980,"freshness":"FRESH","line1":"1 64791U 25150B   26263.59276345 -.00019051  00000+0 -15915-2 0  9990","line2":"2 64791  70.0034   2.9484 0003321 252.6633 107.4163 14.98370373 65712","mean_motion":14.98370373,"eccentricity":0.0003321,"inclination_deg":70.0034,"raan_deg":2.9484,"arg_perigee_deg":252.6633,"mean_anomaly_deg":107.4163,"bstar":-0.0015915,"rev_number":6571,"period_min":96.104409560426,"perigee_km":569.6229259784,"apogee_km":574.23916117294,"semimajor_km":6950.0680435757,"source":"CELESTRAK","updated_at":"2026-09-21T09:00:35.442415Z"}}}